�������l�o���
Date,Time,MP-1(��Sv/h),MP-2(��Sv/h),MP-3(��Sv/h),MP-4(��Sv/h),MP-5(��Sv/h),MP-6(��Sv/h),MP-7(��Sv/h),MP-8(��Sv/h),����,����(m/s),���J
2020/07/18,00:00,0.644,0.917,0.582,1.113,0.784,0.385,0.659,0.624,�k��,3.3,�L
2020/07/18,00:10,0.645,0.914,0.581,1.114,0.786,0.387,0.658,0.622,-,CALM,�L
2020/07/18,00:20,0.643,0.916,0.582,1.114,0.784,0.386,0.660,0.623,�k�k��,4.0,�L
2020/07/18,00:30,0.644,0.917,0.581,1.114,0.783,0.386,0.657,0.623,�k�k��,3.7,�L
2020/07/18,00:40,0.643,0.913,0.582,1.111,0.784,0.385,0.658,0.622,�k�k��,4.6,�L
2020/07/18,00:50,0.642,0.915,0.580,1.113,0.783,0.386,0.658,0.623,�k��,4.4,�L
2020/07/18,01:00,0.643,0.914,0.579,1.110,0.783,0.385,0.659,0.624,�k��,4.9,�L
2020/07/18,01:10,0.643,0.915,0.581,1.111,0.785,0.385,0.658,0.623,�k�k��,4.6,��
2020/07/18,01:20,0.643,0.915,0.579,1.110,0.783,0.386,0.658,0.623,�k�k��,4.7,�L
2020/07/18,01:30,0.644,0.912,0.578,1.111,0.784,0.385,0.659,0.625,�k��,5.3,�L
2020/07/18,01:40,0.643,0.914,0.579,1.112,0.784,0.384,0.659,0.625,�k�k��,4.7,�L
2020/07/18,01:50,0.643,0.913,0.578,1.112,0.784,0.383,0.658,0.625,�k�k��,4.9,�L
2020/07/18,02:00,0.642,0.913,0.579,1.112,0.784,0.385,0.658,0.623,�k�k��,5.8,�L
2020/07/18,02:10,0.643,0.913,0.578,1.111,0.783,0.386,0.659,0.623,�k�k��,5.4,�L
2020/07/18,02:20,0.644,0.911,0.581,1.110,0.783,0.385,0.659,0.624,�k�k��,5.5,�L
2020/07/18,02:30,0.644,0.911,0.580,1.113,0.784,0.385,0.658,0.623,�k�k��,5.8,�L
2020/07/18,02:40,0.644,0.913,0.579,1.111,0.782,0.384,0.657,0.625,�k�k��,5.0,�L
2020/07/18,02:50,0.641,0.910,0.580,1.111,0.780,0.385,0.658,0.624,�k�k��,5.2,�L
2020/07/18,03:00,0.643,0.914,0.579,1.111,0.782,0.383,0.657,0.623,�k�k��,5.4,�L
2020/07/18,03:10,0.642,0.911,0.579,1.110,0.782,0.386,0.656,0.622,�k�k��,5.2,�L
2020/07/18,03:20,0.640,0.910,0.579,1.110,0.781,0.384,0.657,0.622,�k�k��,5.1,�L
2020/07/18,03:30,0.640,0.913,0.579,1.110,0.780,0.384,0.656,0.623,�k�k��,4.9,�L
2020/07/18,03:40,0.642,0.910,0.578,1.108,0.781,0.385,0.656,0.621,�k�k��,4.9,�L
2020/07/18,03:50,0.642,0.909,0.578,1.111,0.780,0.385,0.657,0.622,�k�k��,4.8,�L
2020/07/18,04:00,0.641,0.909,0.576,1.109,0.779,0.385,0.657,0.621,�k�k��,4.9,�L
2020/07/18,04:10,0.640,0.910,0.578,1.108,0.780,0.383,0.657,0.623,�k�k��,4.6,�L
2020/07/18,04:20,0.640,0.910,0.579,1.108,0.782,0.385,0.657,0.623,�k�k��,4.8,�L
2020/07/18,04:30,0.642,0.910,0.578,1.109,0.780,0.384,0.657,0.621,�k�k��,4.4,�L
2020/07/18,04:40,0.642,0.908,0.577,1.108,0.779,0.384,0.657,0.621,�k�k��,4.6,�L
2020/07/18,04:50,0.640,0.907,0.579,1.108,0.780,0.385,0.656,0.623,�k�k��,4.5,�L
2020/07/18,05:00,0.640,0.909,0.578,1.108,0.780,0.383,0.657,0.622,�k�k��,4.8,�L
2020/07/18,05:10,0.640,0.907,0.578,1.107,0.780,0.383,0.658,0.621,�k�k��,4.6,�L
2020/07/18,05:20,0.640,0.906,0.578,1.107,0.780,0.384,0.657,0.621,�k�k��,4.3,�L
2020/07/18,05:30,0.639,0.907,0.578,1.107,0.781,0.384,0.655,0.619,�k�k��,4.8,�L
2020/07/18,05:40,0.639,0.907,0.577,1.104,0.780,0.384,0.658,0.619,�k�k��,4.8,�L
2020/07/18,05:50,0.640,0.906,0.578,1.106,0.780,0.385,0.656,0.620,�k�k��,5.0,�L
2020/07/18,06:00,0.639,0.907,0.577,1.106,0.779,0.384,0.656,0.621,�k�k��,4.4,�L
2020/07/18,06:10,0.639,0.903,0.577,1.107,0.779,0.384,0.655,0.620,�k�k��,4.6,�L
2020/07/18,06:20,0.639,0.906,0.578,1.104,0.776,0.384,0.655,0.621,�k�k��,4.4,�L
2020/07/18,06:30,0.639,0.906,0.577,1.106,0.781,0.385,0.656,0.621,�k�k��,3.8,�L
2020/07/18,06:40,0.640,0.906,0.578,1.106,0.777,0.384,0.655,0.622,�k�k��,4.4,�L
2020/07/18,06:50,0.638,0.903,0.577,1.105,0.780,0.383,0.656,0.621,�k�k��,4.0,�L
2020/07/18,07:00,0.639,0.905,0.578,1.108,0.779,0.383,0.655,0.620,�k�k��,3.2,�L
2020/07/18,07:10,0.636,0.905,0.576,1.103,0.778,0.383,0.657,0.620,�k�k��,3.5,�L
2020/07/18,07:20,0.639,0.905,0.577,1.103,0.777,0.385,0.656,0.620,�k�k��,3.9,�L
2020/07/18,07:30,0.639,0.905,0.577,1.104,0.780,0.383,0.657,0.620,�k,3.9,�L
2020/07/18,07:40,0.638,0.906,0.577,1.103,0.778,0.383,0.657,0.620,�k�k��,4.0,�L
2020/07/18,07:50,0.639,0.904,0.576,1.106,0.780,0.383,0.655,0.618,�k�k��,4.1,�L
2020/07/18,08:00,0.637,0.907,0.578,1.103,0.779,0.383,0.655,0.621,�k�k��,4.0,�L
2020/07/18,08:10,0.636,0.906,0.578,1.105,0.780,0.384,0.655,0.620,�k�k��,5.2,��
2020/07/18,08:20,0.637,0.906,0.578,1.105,0.779,0.384,0.657,0.621,�k�k��,5.1,��
2020/07/18,08:30,0.637,0.902,0.577,1.104,0.777,0.383,0.657,0.620,�k�k��,5.1,��
2020/07/18,08:40,0.638,0.903,0.578,1.106,0.778,0.384,0.657,0.622,�k�k��,4.8,��
2020/07/18,08:50,0.637,0.904,0.577,1.104,0.779,0.385,0.656,0.620,�k�k��,6.0,�L
2020/07/18,09:00,0.637,0.902,0.576,1.107,0.779,0.382,0.656,0.619,�k,5.3,�L
2020/07/18,09:10,0.638,0.902,0.575,1.105,0.778,0.384,0.657,0.620,�k,4.4,��
2020/07/18,09:20,0.636,0.901,0.575,1.106,0.778,0.382,0.657,0.618,�k�k��,4.2,��
2020/07/18,09:30,0.638,0.900,0.575,1.105,0.778,0.383,0.658,0.619,�k,3.0,�L
2020/07/18,09:40,0.637,0.902,0.576,1.106,0.778,0.383,0.656,0.621,�k,4.2,��
2020/07/18,09:50,0.638,0.901,0.577,1.106,0.777,0.380,0.657,0.621,�k,6.1,��
2020/07/18,10:00,0.639,0.901,0.576,1.106,0.779,0.381,0.658,0.620,�k,6.0,��
2020/07/18,10:10,0.635,0.904,0.578,1.105,0.779,0.381,0.656,0.618,�k,4.4,��
2020/07/18,10:20,0.637,0.902,0.575,1.104,0.778,0.383,0.658,0.619,�k,5.7,��
2020/07/18,10:30,0.639,0.903,0.575,1.105,0.777,0.382,0.656,0.620,�k,5.0,��
2020/07/18,10:40,0.638,0.905,0.576,1.104,0.776,0.382,0.657,0.621,�k,4.3,��
2020/07/18,10:50,0.638,0.906,0.575,1.106,0.779,0.382,0.657,0.620,�k,5.0,�L
2020/07/18,11:00,0.640,0.906,0.575,1.107,0.780,0.383,0.657,0.619,�k,5.8,��
2020/07/18,11:10,0.638,0.902,0.577,1.107,0.779,0.382,0.658,0.620,�k�k��,4.1,��
2020/07/18,11:20,0.638,0.906,0.578,1.107,0.779,0.383,0.659,0.620,�k�k��,4.7,��
2020/07/18,11:30,0.638,0.905,0.577,1.107,0.779,0.382,0.657,0.620,�k�k��,3.9,��
2020/07/18,11:40,0.638,0.906,0.577,1.109,0.779,0.383,0.656,0.620,�k�k��,3.8,��
2020/07/18,11:50,0.638,0.909,0.576,1.108,0.778,0.381,0.657,0.620,�k,3.9,��
2020/07/18,12:00,0.639,0.907,0.577,1.108,0.781,0.382,0.657,0.619,�k,3.8,��
2020/07/18,12:10,0.641,0.908,0.579,1.108,0.782,0.384,0.656,0.621,�k,3.9,��
2020/07/18,12:20,0.641,0.907,0.577,1.108,0.779,0.383,0.658,0.621,�k�k��,3.9,��
2020/07/18,12:30,0.640,0.910,0.579,1.108,0.782,0.382,0.657,0.621,�k�k��,3.8,��
2020/07/18,12:40,0.640,0.909,0.578,1.108,0.783,0.383,0.655,0.620,�k�k��,4.0,��
2020/07/18,12:50,0.641,0.910,0.579,1.107,0.779,0.383,0.658,0.620,�k,3.9,��
2020/07/18,13:00,0.641,0.908,0.577,1.108,0.781,0.382,0.660,0.620,�k�k��,4.4,��
2020/07/18,13:10,0.641,0.913,0.578,1.108,0.780,0.384,0.659,0.620,�k�k��,4.2,��
2020/07/18,13:20,0.643,0.910,0.577,1.107,0.782,0.384,0.659,0.620,�k�k��,3.6,��
2020/07/18,13:30,0.640,0.911,0.578,1.108,0.780,0.384,0.659,0.620,�k�k��,3.6,��
2020/07/18,13:40,0.641,0.911,0.578,1.109,0.781,0.384,0.658,0.622,�k�k��,3.8,��
2020/07/18,13:50,0.640,0.911,0.579,1.106,0.781,0.384,0.658,0.621,�k�k��,4.2,��
2020/07/18,14:00,0.643,0.909,0.579,1.107,0.782,0.384,0.657,0.622,�k�k��,4.8,��
2020/07/18,14:10,0.642,0.910,0.579,1.107,0.782,0.382,0.659,0.622,�k�k��,4.1,��
2020/07/18,14:20,0.642,0.911,0.580,1.108,0.784,0.383,0.658,0.621,�k�k��,3.6,��
2020/07/18,14:30,0.644,0.911,0.579,1.109,0.784,0.384,0.659,0.620,�k�k��,3.5,��
2020/07/18,14:40,0.642,0.912,0.579,1.108,0.783,0.384,0.658,0.621,�k�k��,3.9,��
2020/07/18,14:50,0.642,0.912,0.580,1.107,0.783,0.384,0.660,0.621,�k��,3.7,�L
2020/07/18,15:00,0.643,0.912,0.577,1.108,0.785,0.385,0.659,0.621,�k�k��,3.4,�L
2020/07/18,15:10,0.644,0.914,0.582,1.109,0.785,0.384,0.660,0.620,�k�k��,3.5,�L
2020/07/18,15:20,0.644,0.914,0.580,1.107,0.785,0.383,0.659,0.621,�k��,3.3,��
2020/07/18,15:30,0.643,0.916,0.579,1.109,0.786,0.384,0.659,0.620,�k��,2.8,��
2020/07/18,15:40,0.643,0.916,0.579,1.109,0.786,0.385,0.660,0.621,�k��,2.2,��
2020/07/18,15:50,0.643,0.914,0.580,1.109,0.783,0.384,0.658,0.620,�k�k��,2.3,��
2020/07/18,16:00,0.644,0.917,0.580,1.110,0.784,0.386,0.661,0.620,�k��,2.8,��
2020/07/18,16:10,0.645,0.917,0.578,1.107,0.786,0.385,0.658,0.622,�k�k��,2.5,��
2020/07/18,16:20,0.645,0.917,0.580,1.111,0.785,0.387,0.658,0.622,�k��,2.6,��
2020/07/18,16:30,0.642,0.917,0.580,1.111,0.786,0.386,0.660,0.621,�k�k��,2.5,��
2020/07/18,16:40,0.646,0.916,0.580,1.111,0.787,0.385,0.661,0.622,�k�k��,2.6,��
2020/07/18,16:50,0.644,0.917,0.579,1.110,0.783,0.385,0.661,0.623,�k�k��,2.3,��
2020/07/18,17:00,0.643,0.914,0.580,1.112,0.785,0.385,0.659,0.621,�k�k��,2.0,��
2020/07/18,17:10,0.644,0.916,0.579,1.110,0.788,0.385,0.661,0.624,�k��,2.5,��
2020/07/18,17:20,0.643,0.919,0.579,1.112,0.784,0.385,0.661,0.621,�k��,2.3,��
2020/07/18,17:30,0.643,0.915,0.581,1.111,0.786,0.385,0.659,0.623,�k�k��,2.6,��
2020/07/18,17:40,0.643,0.917,0.580,1.112,0.787,0.385,0.660,0.622,�k�k��,2.3,��
2020/07/18,17:50,0.643,0.919,0.581,1.113,0.785,0.385,0.660,0.621,�k�k��,1.7,��
2020/07/18,18:00,0.643,0.919,0.580,1.112,0.785,0.385,0.661,0.623,�k�k��,1.9,��
2020/07/18,18:10,0.644,0.915,0.580,1.112,0.787,0.387,0.659,0.623,�k��,2.2,��
2020/07/18,18:20,0.644,0.920,0.581,1.113,0.786,0.385,0.659,0.622,�k�k��,2.2,��
2020/07/18,18:30,0.642,0.920,0.583,1.114,0.787,0.386,0.659,0.621,�k�k��,1.9,��
2020/07/18,18:40,0.643,0.921,0.583,1.113,0.786,0.386,0.660,0.623,�k�k��,2.3,��
2020/07/18,18:50,0.643,0.917,0.581,1.112,0.785,0.386,0.661,0.622,�k�k��,2.0,��
2020/07/18,19:00,0.644,0.919,0.583,1.112,0.788,0.385,0.659,0.623,�k�k��,2.0,��
2020/07/18,19:10,0.643,0.920,0.584,1.113,0.789,0.385,0.659,0.624,�k�k��,1.7,��
2020/07/18,19:20,0.645,0.921,0.583,1.114,0.789,0.388,0.661,0.624,�k,1.9,��
2020/07/18,19:30,0.642,0.921,0.583,1.113,0.787,0.387,0.661,0.622,�k�k��,2.0,��
2020/07/18,19:40,0.643,0.921,0.583,1.116,0.789,0.384,0.661,0.624,�k�k��,2.0,��
2020/07/18,19:50,0.645,0.921,0.583,1.115,0.790,0.386,0.659,0.622,�k,1.5,��
2020/07/18,20:00,0.645,0.923,0.583,1.115,0.789,0.386,0.661,0.623,�k�k��,1.5,��
2020/07/18,20:10,0.645,0.921,0.582,1.113,0.789,0.387,0.660,0.623,�k,1.4,��
2020/07/18,20:20,0.646,0.919,0.583,1.113,0.789,0.387,0.661,0.623,�k�k��,2.0,��
2020/07/18,20:30,0.646,0.918,0.583,1.115,0.788,0.386,0.661,0.624,�k,1.9,��
2020/07/18,20:40,0.645,0.919,0.585,1.112,0.790,0.388,0.661,0.625,�k,1.2,��
2020/07/18,20:50,0.645,0.918,0.581,1.112,0.788,0.387,0.660,0.624,�k,1.7,��
2020/07/18,21:00,0.646,0.921,0.582,1.115,0.788,0.388,0.660,0.624,�k,1.9,��
2020/07/18,21:10,0.646,0.920,0.584,1.114,0.788,0.388,0.661,0.625,�k,1.4,��
2020/07/18,21:20,0.647,0.921,0.584,1.113,0.789,0.386,0.661,0.624,�k,1.1,��
2020/07/18,21:30,0.647,0.919,0.582,1.114,0.787,0.387,0.662,0.625,�k�k��,1.7,��
2020/07/18,21:40,0.644,0.920,0.586,1.113,0.790,0.388,0.660,0.625,�k,1.7,��
2020/07/18,21:50,0.647,0.919,0.583,1.114,0.789,0.387,0.661,0.625,�k,1.7,��
2020/07/18,22:00,0.646,0.919,0.583,1.114,0.788,0.387,0.660,0.624,�k�k��,2.0,��
2020/07/18,22:10,0.645,0.920,0.584,1.115,0.789,0.387,0.661,0.624,�k�k��,2.3,��
2020/07/18,22:20,0.645,0.919,0.583,1.114,0.790,0.387,0.662,0.626,�k�k��,1.7,��
2020/07/18,22:30,0.646,0.919,0.583,1.115,0.790,0.386,0.661,0.624,�k�k��,2.5,��
2020/07/18,22:40,0.644,0.918,0.583,1.113,0.789,0.386,0.659,0.625,�k�k��,2.6,��
2020/07/18,22:50,0.647,0.924,0.582,1.111,0.790,0.388,0.660,0.624,�k��,2.5,��
2020/07/18,23:00,0.648,0.919,0.583,1.112,0.791,0.387,0.659,0.625,�k�k��,3.1,��
2020/07/18,23:10,0.644,0.921,0.583,1.111,0.789,0.387,0.661,0.624,�k�k��,3.4,��
2020/07/18,23:20,0.644,0.920,0.583,1.113,0.790,0.387,0.662,0.626,�k�k��,3.6,��
2020/07/18,23:30,0.645,0.918,0.581,1.113,0.789,0.386,0.663,0.625,�k�k��,2.5,��
2020/07/18,23:40,0.645,0.919,0.583,1.112,0.789,0.387,0.661,0.624,���k��,1.5,��
2020/07/18,23:50,0.646,0.920,0.583,1.113,0.790,0.388,0.660,0.624,�k��,2.0,��
